Starlink 11473

operational
NORAD ID: 62060 Int'l Des: 2024-217 Owner: SPXS Country: US Constellation: starlink
LEOCIRCULAR

Starlink 11473について

説明を読み込み中...

リアルタイム位置

3D地球を読み込み中...

次回通過

高度履歴

Altitude vs Time

uPlot chart will show altitude changes over time

軌道要素

1 62060U 24217D 25305.54533830 .00144065 00000-0 11706-2 0 9993
2 62060 53.1568 343.2106 0001534 138.8719 221.2415 15.69768738 55044
Epoch: Nov 1, 2025 • Age: 25 hours

現在のステータス

高度 357.9 km
速度 7.70 km/s
衛星直下点 11.19°N, 106.11°W
打ち上げ日 Nov 24, 2024
運用期間 0.9 years
タイプ internet

技術仕様

分類 Payload
質量 960.00 kg
乾燥質量 910.00 kg
総質量 960.00 kg
長さ 0.30 m
直径 4.10 m
スパン 29.00 m
形状 Box + pan
製造者 SPXS
バスタイプ Starlink V2MD
フェーズステータス In Orbit
所有者/国 SPXS/US

大規模コンステレーション

Loading constellations...